This demonstration page uses our WeatherBlox Daily Observations layout. Learn more.

Left ArrowRight Arrow

39.01783, -85.05884

Hourly Observations for July 23, 2021

Temp ( °F °C ) Dew Point ( °F °C ) Humidity (%) Winds ( mph kmh ) Pressure ( in mb ) Visibility ( mi km ) Precip ( " mm )
12:52 am 00:52 Partly Cloudy 71 21.7 57 13.9 61 61 ESE 7 11 30.16 1022 10 16 N/A
1:52 am 01:52 Mostly Clear 68 20 57 13.9 68 68 S 3 6 30.16 1021 10 16 N/A
2:52 am 02:52 Mostly Clear 69 20.6 56 13.3 63 63 N N/A 30.14 1021 10 16 N/A
3:52 am 03:52 Mostly Clear 69 20.6 56 13.3 63 63 N N/A 30.15 1021 10 16 N/A
4:52 am 04:52 Mostly Clear 64 17.8 57 13.9 78 78 N N/A 30.16 1021 10 16 N/A
5:52 am 05:52 Mostly Cloudy 64 17.8 58 14.4 81 81 N N/A 30.15 1021 10 16 N/A
6:52 am 06:52 Mostly Cloudy 63 17.2 58 14.4 84 84 N N/A 30.17 1022 7 11 N/A
7:52 am 07:52 Mostly Cloudy 66 18.9 60 15.6 81 81 N N/A 30.17 1022 8 13 N/A
8:52 am 08:52 Partly Cloudy 71 21.7 60 15.6 68 68 N N/A 30.19 1022 10 16 N/A
9:52 am 09:52 Mostly Sunny 74 23.3 61 16.1 64 64 SSW 5 7 30.19 1023 10 16 N/A
10:52 am 10:52 Partly Cloudy 76 24.4 60 15.6 58 58 N N/A 30.19 1023 10 16 N/A
11:52 am 11:52 Mostly Cloudy 79 26.1 59 15 50 50 N N/A 30.19 1022 10 16 N/A
12:52 pm 12:52 Partly Cloudy 82 27.8 60 15.6 47 47 NE 6 9 30.17 1022 10 16 N/A
1:52 pm 13:52 Partly Cloudy 81 27.2 60 15.6 49 49 ESE 6 9 30.16 1021 10 16 N/A
2:52 pm 14:52 Mostly Sunny 84 28.9 61 16.1 46 46 NNE 8 13 30.14 1021 10 16 N/A
3:52 pm 15:52 Mostly Sunny 83 28.3 60 15.6 46 46 ESE 6 9 30.12 1020 10 16 N/A
4:52 pm 16:52 Sunny 83 28.3 61 16.1 48 48 ESE 6 9 30.11 1020 10 16 N/A
5:52 pm 17:52 Sunny 83 28.3 61 16.1 48 48 ESE 6 9 30.10 1019 10 16 N/A
6:52 pm 18:52 Sunny 82 27.8 62 16.7 51 51 S 5 7 30.08 1019 10 16 N/A
7:52 pm 19:52 Sunny 82 27.8 61 16.1 49 49 E 6 9 30.08 1019 10 16 N/A
8:52 pm 20:52 Mostly Sunny 77 25 63 17.2 62 62 S 5 7 30.08 1019 10 16 N/A
9:52 pm 21:52 Clear 76 24.4 61 16.1 60 60 S 5 7 30.08 1019 10 16 N/A
10:52 pm 22:52 Clear 73 22.8 61 16.1 66 66 S 3 6 30.09 1019 10 16 N/A
11:52 pm 23:52 Clear 72 22.2 60 15.6 66 66 S 3 6 30.09 1019 10 16 N/A

Powered by AerisWeather